Location: Newark
(41.0400°S, 62.7845°W)
Time: 22:52:43
(UTC+00:00)

Courier 1B Rocket - Pass Details

Date: 30 November 2021
Orbit: 920 x 1202 km, 28.2° (Epoch: 20 January)

Event Time Altitude Azimuth Distance (km) Brightness Sun altitude
Rises 14:31:56 0° 334° (NNW) 4,026 8.3 63.2°
Reaches altitude 10° 14:36:21 10° 357° (N) 3,105 8.0 63.9°
Maximum altitude 14:40:06 14° 26° (NNE) 2,815 8.0 64.4°
Drops below altitude 10° 14:43:53 10° 55° (NE) 3,139 8.2 64.9°
Sets 14:48:22 0° 78° (ENE) 4,101 8.5 65.5°
